Weather Roundup
Issued by NWS

Home | Current Version | Previous Version | Graphics & Text | Print | Product List | Glossary Off
Versions: 1 2 3 4 5 6 7 8 9 10 11 12 13 14 15 16 17 18 19 20 21 22 23 24 25 26 27 28 29 30 31 32 33 34 35 36 37 38 39 40 41 42 43 44 45 46 47 48 49 50

000
NZUS93 KARX 060659
HRRWXR

CURRENT HOURLY OBSERVATIONS ACROSS
MUCH OF THE UPPER MISSISSIPPI VALLEY
NATIONAL WEATHER SERVICE LA CROSSE WI
100 AM CST FRI MAR 06 2015


...SOUTHEAST MINNESOTA...


CITY           SKY/WX    TMP DP  RH WIND       PRES   REMARKS
ROCHESTER      CLEAR      2  -5  72 S15       30.27F WCI -17
ROCHESTER/MAYO FAIR       5  -4  66 S12G17    30.28F WCI -11
WINONA         PTCLDY     9   0  66 SE5       30.37F WCI   0
AUSTIN         CLEAR      1  -4  78 S10       30.28F WCI -14
ALBERT LEA     CLEAR      9   0  66 S14       30.26F WCI  -8
DODGE CENTER   PTCLDY     5   0  78 S20G25    30.24F WCI -15
PRESTON        PTCLDY     1  -5  75 S17       30.30F WCI -19
OWATONNA       CLEAR      9   0  66 S20G25    30.23F WCI -11
FARIBAULT      CLEAR      7   0  72 S13G18    30.24F WCI  -9
$$

...ELSEWHERE IN MINNESOTA...


CITY           SKY/WX    TMP DP  RH WIND       PRES   REMARKS
MINNEAPOLIS    PTCLDY     7   0  73 SE8       30.24F WCI  -6
INTNL FALLS    CLOUDY    12   1  61 SW9G20    29.93F WCI   0
DULUTH         CLEAR      6  -3  66 SW14      30.08F WCI -11
RED WING       CLEAR      5  -2  72 SE7       30.28F WCI  -7
REDWOOD FALLS  CLEAR     13   5  70 S12       30.15F WCI  -1
MANKATO        CLEAR     10   0  61 S14       30.21F WCI  -5
FAIRMONT       CLEAR     12   3  67 S16       30.19F WCI  -4
$$

...SOUTHWEST WISCONSIN...


CITY           SKY/WX    TMP DP  RH WIND       PRES   REMARKS
LA CROSSE      PTCLDY     5  -4  66 S12       30.39F WCI -11
PRAIRIE DU CHI CLEAR     -2  -8  77 CALM      30.45F
BOSCOBEL       PTCLDY    -7 -12  79 CALM      30.45F
LONE ROCK      NOT AVBL
PLATTEVILLE    PTCLDY    -2  -8  76 SE7       30.43F WCI -15
FORT MC COY    CLEAR      2  -6  68 CALM      30.39F
VIROQUA        FAIR       0  -6  78 S7        30.34F WCI -13
WIS DELLS      NOT AVBL
$$

...ELSEWHERE IN WISCONSIN...


CITY           SKY/WX    TMP DP  RH WIND       PRES   REMARKS
MILWAUKEE      PTCLDY     4  -7  60 SW8       30.46F WCI  -9
MADISON        PTCLDY     3  -6  66 CALM      30.43F
GREEN BAY      PTCLDY     4  -7  60 SW7       30.39F WCI  -8
EAU CLAIRE     NOT AVBL
BLACK RVR FLS  FAIR     -10 -15  76 CALM      30.37F
MEDFORD        PTCLDY    -1  -8  72 S7        30.26F WCI -14
WAUSAU         PTCLDY     1  -9  62 S5        30.29F WCI  -9
WIS RAPIDS     PTCLDY     0  -8  69 S6        30.37F WCI -12
MARSHFIELD     PTCLDY    -1  -8  72 SW8       30.30F WCI -15
RICE LAKE      PTCLDY     1  -5  78 SE7       30.27F WCI -12
$$

...NORTHEAST IOWA...


CITY           SKY/WX    TMP DP  RH WIND       PRES   REMARKS
DECORAH        PTCLDY     1  -6  71 S6        30.35F WCI -10
MASON CITY     CLEAR      1  -5  75 S12       30.31F WCI -16
CHARLES CITY   PTCLDY     1  -6  71 S13       30.35F WCI -16
OELWEIN        PTCLDY    -2  -9  71 SE12      30.39F WCI -20
$$

...ELSEWHERE IN IOWA...


CITY           SKY/WX    TMP DP  RH WIND       PRES   REMARKS
DES MOINES     PTCLDY    17   4  56 S13       30.36F WCI   4
IOWA CITY      PTCLDY     2  -2  83 SE5       30.48F WCI  -8
FORT DODGE     PTCLDY    16   1  53 S14       30.29F WCI   1
$$

...NORTHERN ILLINOIS...


CITY           SKY/WX    TMP DP  RH WIND       PRES   REMARKS
CHICAGO-OHARE  PTCLDY     5  -4  66 W6        30.50F WCI  -6
CHICAGO-MIDWAY PTCLDY     7  -2  66 SW7       30.52F WCI  -5
MOLINE         PTCLDY     0  -6  76 CALM      30.50F
ROCKFORD       PTCLDY    -1  -7  75 S5        30.50F WCI -11
PEORIA         PTCLDY     4  -4  69 CALM      30.54F
$$

NOTE: "FAIR" INDICATES FEW OR NO CLOUDS BELOW 12,000 FEET WITH NO
SIGNIFICANT WEATHER AND/OR OBSTRUCTIONS TO VISIBILITY. WIND
SPEEDS ARE IN MILES-PER-HOUR.



USA.gov is the U.S. government's official web portal to all federal, state and local government web resources and services.